Back to catalog

OBJECT B

AliveHEO
NORAD 100126·UNKNOWN·🇺🇸 United States

Launched Jul 21, 2026 from Cape Canaveral Space Force Station

Loading…

Next Passes (next 24 hours)

TLE

FreshSource: Space-Track

Epoch: Sep 8, 2026, 01:44 UTC

1 A0126U 26167B   26251.07283241  .00000237  00000-0  82761-2 0  9992
2 A0126  24.8050  87.0495 7607248 201.6148  89.8873  1.72633797   849

Track OBJECT B in real time with AllMySat

Download on the App Store